[[{"header":{"parameterUnit":"m.s-1","parameterCategory":2,"la1":30.2991,"la2":30.254,"lo1":-89.0895,"lo2":-89.0444,"dy":0.0017,"dx":0.0017,"nx":28,"ny":28,"refTime":"2025-01-04T03:00:00:Z","depth":"0","parameterNumber":2,"parameterNumberName":"U-component_of_CURRENTS"},"data":[0,0,0,0,0,0,0,0,0,0,0,0,0,0,0,0,0,0,0,0,0,0,0,0,0,0,0,0,0,0,0,0,0,0,0,0,0,0,0,0,0,0,0,0,0,0,0,0,0,0,0,0,0,0,0,0,0,0,-0.2926,-0.2926,0,-0.2945,-0.2945,-0.2945,-0.2914,-0.2913,-0.2913,-0.2912,-0.2796,-0.2794,-0.2791,0,0,0,0,0,0,0,0,0,0,0,0,0,-0.2934,-0.2933,-0.2926,-0.2926,-0.2927,-0.2945,-0.2945,-0.2945,-0.2914,-0.2913,-0.2912,-0.2912,-0.2797,-0.2794,-0.2791,0,0,0,0,0,0,0,0,0,0,0,0,0,-0.2935,-0.2933,-0.2925,-0.2917,-0.2917,-0.2945,-0.2945,-0.2945,-0.2914,-0.2913,-0.2912,-0.2911,-0.2798,-0.2794,-0.2791,-0.2786,0,0,-0.2779,-0.2777,0,0,0,0,0,0,0,0,-0.2935,-0.2934,-0.2918,-0.2918,-0.2918,-0.293,-0.2906,-0.2887,-0.2914,-0.291,-0.2912,-0.2911,-0.2832,-0.2826,-0.2826,-0.2781,-0.2776,-0.2779,-0.2776,-0.2775,-0.2774,0,0,0,0,0,0,0,-0.2935,-0.2933,-0.2928,-0.2919,-0.2919,-0.2938,-0.2936,-0.2903,-0.287,-0.291,-0.2909,-0.292,-0.283,-0.283,-0.2823,-0.2774,-0.2779,-0.2776,-0.2773,-0.2772,-0.2733,-0.2734,0,0,0,0,0,0,-0.2939,-0.2933,-0.2928,-0.293,-0.293,-0.2939,-0.2936,-0.2923,-0.2873,-0.2867,-0.292,-0.2918,-0.2837,-0.2828,-0.2819,-0.2824,-0.2775,-0.2771,-0.2769,-0.2732,-0.2733,-0.2735,0,0,0,0,0,0,-0.2939,-0.2937,-0.2927,-0.2937,-0.2938,-0.2939,-0.2926,-0.2924,-0.2923,-0.2883,-0.2873,-0.292,-0.2836,-0.2824,-0.2788,-0.2818,-0.277,-0.2766,-0.273,-0.2732,-0.2734,-0.2825,0,0,0,0,0,0,-0.2938,-0.2937,-0.292,-0.2936,-0.2937,-0.294,-0.2927,-0.2926,-0.2933,-0.293,-0.288,-0.2869,-0.2834,-0.2794,-0.2784,-0.2812,-0.2763,-0.2729,-0.2731,-0.2733,-0.2821,-0.283,-0.2838,0,0,0,0,0,-0.2938,-0.2915,-0.2918,-0.2918,-0.2916,-0.2941,-0.2942,-0.2938,-0.2934,-0.2933,-0.2901,-0.287,-0.2802,-0.2791,-0.278,-0.2808,-0.2728,-0.2731,-0.2733,-0.2817,-0.2828,-0.2838,0,0,0,0,0,0,-0.2901,-0.2911,-0.2915,-0.2892,-0.2918,-0.2937,-0.2931,-0.2943,-0.2922,-0.2911,-0.2872,-0.2858,-0.2844,-0.281,-0.28,-0.2805,-0.2766,-0.2766,-0.2833,-0.2843,-0.2852,-0.2889,-0.276,0,0,0,0,0,-0.2891,-0.288,-0.2904,-0.2891,-0.2898,-0.292,-0.2927,-0.2936,-0.2929,-0.292,-0.2891,-0.2863,-0.2849,-0.2832,-0.2805,-0.2797,-0.2781,-0.2813,-0.2821,-0.2829,-0.2853,-0.2856,-0.2867,-0.2744,-0.2744,-0.2744,0,0,-0.2882,-0.2881,-0.2879,-0.2884,-0.2896,-0.293,-0.2919,-0.2934,-0.2971,-0.2908,-0.2916,-0.2883,-0.2853,-0.2851,-0.2843,-0.2824,-0.2852,-0.2832,-0.2839,-0.2859,-0.286,-0.2872,-0.2883,-0.2746,-0.2745,-0.2745,0,0,-0.2875,-0.285,-0.2852,-0.2877,-0.2903,-0.2924,-0.2934,-0.2957,-0.2965,-0.2973,-0.2951,-0.2944,-0.2901,-0.2908,-0.2902,-0.2943,-0.2897,-0.2926,-0.2999,-0.3002,-0.3013,-0.3022,-0.3006,-0.3013,-0.2932,-0.2932,-0.2932,0,-0.2867,-0.2871,-0.286,-0.2882,-0.2918,-0.2928,-0.2973,-0.2987,-0.3001,-0.302,-0.298,-0.2971,-0.2943,-0.2978,-0.2999,-0.2967,-0.2945,-0.2962,-0.3015,-0.3023,-0.3031,-0.3013,-0.3019,-0.2937,-0.2936,-0.2936,-0.2935,0,-0.2875,-0.2894,-0.2897,-0.2935,-0.2965,-0.2999,-0.304,-0.306,-0.3067,-0.3089,-0.3106,-0.3068,-0.3067,-0.3064,-0.3044,-0.3097,-0.3055,-0.3024,-0.2991,-0.3049,-0.3025,-0.3031,-0.2944,-0.2942,-0.294,-0.2939,0,0,-0.2832,-0.2897,-0.2898,-0.2951,-0.3004,-0.3038,-0.3095,-0.3161,-0.3197,-0.3194,-0.3235,-0.3238,-0.3212,-0.3206,-0.3178,-0.3191,-0.3228,-0.3138,-0.3136,-0.3128,-0.3216,-0.3077,-0.3069,-0.3195,-0.3197,-0.3199,-0.3173,0,-0.2855,-0.2926,-0.2946,-0.3039,-0.3097,-0.3137,-0.3191,-0.3248,-0.3264,-0.3289,-0.3287,-0.3287,-0.3267,-0.3248,-0.3271,-0.3226,-0.3247,-0.3237,-0.3156,-0.3154,-0.3029,-0.3073,-0.2932,-0.2887,-0.3177,-0.3178,-0.3179,0,-0.2859,-0.2919,-0.3013,-0.313,-0.3152,-0.3198,-0.3292,-0.3339,-0.3384,-0.3388,-0.3403,-0.337,-0.3398,-0.3349,-0.3348,-0.3333,-0.3302,-0.3269,-0.3266,-0.3115,-0.3026,-0.2878,-0.2885,-0.289,-0.3186,-0.3185,-0.3185,0,-0.2861,-0.2966,-0.3051,-0.3091,-0.3208,-0.3253,-0.3303,-0.3366,-0.3393,-0.3432,-0.3421,-0.3452,-0.342,-0.3416,-0.3357,-0.3347,-0.333,-0.3298,-0.3156,-0.3144,-0.3,-0.2972,-0.3008,-0.3321,-0.3321,-0.3322,-0.3322,0,-0.2885,-0.2948,-0.3057,-0.3106,-0.3184,-0.3269,-0.333,-0.3372,-0.3417,-0.3404,-0.3453,-0.3406,-0.3432,-0.3406,-0.3379,-0.3272,-0.3348,-0.3183,-0.3136,-0.3023,-0.2999,-0.2973,-0.2991,-0.3321,-0.3321,-0.3321,-0.3321,0,-0.2858,-0.2939,-0.303,-0.3155,-0.3184,-0.3229,-0.3307,-0.3327,-0.3392,-0.3365,-0.3363,-0.3377,-0.3304,-0.3324,-0.3289,-0.3256,-0.3126,-0.3149,-0.3006,-0.2942,-0.2768,-0.2795,-0.2716,-0.2644,-0.2972,-0.2968,-0.2965,0,-0.2852,-0.2903,-0.3018,-0.3032,-0.3074,-0.3152,-0.3173,-0.328,-0.3276,-0.3292,-0.3239,-0.321,-0.3107,-0.3048,-0.3,-0.2946,-0.296,-0.2801,-0.2764,-0.2752,-0.275,-0.2744,-0.269,-0.2612,-0.2606,-0.2602,-0.2598,0,-0.281,-0.2836,-0.288,-0.2932,-0.2959,-0.2997,-0.3032,-0.3032,-0.3099,-0.3069,-0.2961,-0.2896,-0.2835,-0.2701,-0.2688,-0.263,-0.2707,-0.2699,-0.2738,-0.2518,-0.2465,-0.2371,-0.2638,-0.2557,-0.2561,-0.2564,-0.2566,-0.2568,-0.2727,-0.2713,-0.2752,-0.2779,-0.2807,-0.2782,-0.2737,-0.2758,-0.271,-0.2611,-0.2654,-0.2542,-0.2518,-0.243,-0.2388,-0.2309,-0.2355,-0.226,-0.2307,-0.2314,-0.2204,-0.2365,-0.2193,-0.2195,-0.2196,-0.2198,-0.2199,0,-0.2591,-0.2578,-0.2591,-0.2593,-0.2544,-0.2621,-0.258,-0.2487,-0.2337,-0.2332,-0.223,-0.2223,-0.211,-0.214,-0.2087,-0.2005,-0.1965,-0.1968,-0.1978,-0.1951,-0.2135,-0.2079,-0.1811,-0.1811,-0.1811,-0.1811,-0.1811,-0.1811,-0.2509,-0.2446,-0.2444,-0.232,-0.2308,-0.2163,-0.2089,-0.1972,-0.1934,-0.1822,-0.1854,-0.1949,-0.2024,-0.2103,-0.2003,-0.1898,-0.1874,-0.1757,-0.1829,-0.2029,-0.2063,-0.2095,-0.205,-0.178,-0.178,-0.1562,-0.156,-0.1559]},{"header":{"parameterUnit":"m.s-1","parameterCategory":2,"la1":30.2991,"la2":30.254,"lo1":-89.0895,"lo2":-89.0444,"dy":0.0017,"dx":0.0017,"nx":28,"ny":28,"refTime":"2025-01-04T03:00:00:Z","depth":"0","parameterNumber":3,"parameterNumberName":"V-component_of_CURRENTS"},"data":[0,0,0,0,0,0,0,0,0,0,0,0,0,0,0,0,0,0,0,0,0,0,0,0,0,0,0,0,0,0,0,0,0,0,0,0,0,0,0,0,0,0,0,0,0,0,0,0,0,0,0,0,0,0,0,0,0,0,-0.0661,-0.066,0,-0.0591,-0.059,-0.0589,-0.0551,-0.0551,-0.0551,-0.0551,-0.0413,-0.0409,-0.0405,0,0,0,0,0,0,0,0,0,0,0,0,0,-0.0783,-0.0781,-0.0661,-0.066,-0.066,-0.0591,-0.059,-0.0589,-0.0551,-0.0551,-0.0551,-0.0551,-0.0414,-0.041,-0.0405,0,0,0,0,0,0,0,0,0,0,0,0,0,-0.0722,-0.078,-0.0661,-0.0634,-0.0631,-0.0591,-0.059,-0.0588,-0.0551,-0.0551,-0.0551,-0.0551,-0.0415,-0.041,-0.0404,-0.0367,0,0,-0.0387,-0.0385,0,0,0,0,0,0,0,0,-0.0725,-0.0717,-0.0639,-0.0636,-0.0632,-0.0581,-0.0582,-0.0511,-0.0551,-0.058,-0.0551,-0.0552,-0.0464,-0.0454,-0.0439,-0.0361,-0.0355,-0.0387,-0.0383,-0.0381,-0.0379,0,0,0,0,0,0,0,-0.073,-0.072,-0.0631,-0.0638,-0.0634,-0.0632,-0.0623,-0.0569,-0.0519,-0.0577,-0.0575,-0.057,-0.0461,-0.0445,-0.0436,-0.0353,-0.0387,-0.0382,-0.0378,-0.0376,-0.0228,-0.0227,0,0,0,0,0,0,-0.074,-0.0724,-0.0634,-0.0629,-0.0682,-0.063,-0.062,-0.0596,-0.0521,-0.0511,-0.057,-0.0568,-0.0454,-0.0442,-0.043,-0.0382,-0.0381,-0.0376,-0.0372,-0.0229,-0.0228,-0.0227,0,0,0,0,0,0,-0.0743,-0.0732,-0.0637,-0.0678,-0.0666,-0.0628,-0.0602,-0.0595,-0.0576,-0.0517,-0.0505,-0.0559,-0.0454,-0.0438,-0.0374,-0.0376,-0.0373,-0.0368,-0.0229,-0.0228,-0.0228,-0.0284,0,0,0,0,0,0,-0.0746,-0.0733,-0.072,-0.0678,-0.0664,-0.0613,-0.0601,-0.0593,-0.0574,-0.0571,-0.0503,-0.0491,-0.0453,-0.0383,-0.0369,-0.0368,-0.0363,-0.023,-0.0229,-0.0228,-0.0282,-0.0285,-0.0287,0,0,0,0,0,-0.075,-0.0732,-0.0719,-0.0708,-0.0646,-0.0613,-0.0605,-0.0579,-0.0574,-0.0563,-0.0513,-0.0493,-0.0367,-0.0377,-0.0361,-0.0359,-0.023,-0.0229,-0.0228,-0.0281,-0.0284,-0.0287,0,0,0,0,0,0,-0.0777,-0.0726,-0.071,-0.0676,-0.0648,-0.0607,-0.0597,-0.058,-0.0534,-0.0531,-0.0475,-0.0458,-0.0409,-0.0369,-0.0382,-0.0313,-0.0299,-0.0294,-0.0345,-0.0347,-0.035,-0.0354,-0.0359,0,0,0,0,0,-0.0777,-0.0754,-0.0707,-0.0685,-0.0668,-0.0633,-0.0617,-0.06,-0.0557,-0.0538,-0.0488,-0.0435,-0.0391,-0.0358,-0.0311,-0.0261,-0.022,-0.0251,-0.0254,-0.0256,-0.0247,-0.0186,-0.0182,-0.0223,-0.0223,-0.0223,0,0,-0.0792,-0.0754,-0.0746,-0.069,-0.0665,-0.0646,-0.0623,-0.0601,-0.0585,-0.0528,-0.0482,-0.0439,-0.038,-0.0333,-0.0308,-0.0299,-0.0224,-0.0254,-0.0257,-0.0246,-0.0184,-0.018,-0.0177,-0.0222,-0.0223,-0.0223,0,0,-0.0809,-0.0764,-0.0754,-0.0727,-0.0688,-0.066,-0.0655,-0.0608,-0.0584,-0.0535,-0.0499,-0.0449,-0.0373,-0.0331,-0.0302,-0.0281,-0.0242,-0.0277,-0.0284,-0.0225,-0.0221,-0.0217,-0.0171,-0.0162,-0.0273,-0.0274,-0.0274,0,-0.0831,-0.0802,-0.075,-0.073,-0.0717,-0.0668,-0.0664,-0.0626,-0.0566,-0.0539,-0.0527,-0.0415,-0.0371,-0.0311,-0.0312,-0.0287,-0.0252,-0.0284,-0.0229,-0.0224,-0.0219,-0.0172,-0.0162,-0.0276,-0.0276,-0.0276,-0.0275,0,-0.0837,-0.082,-0.0812,-0.0769,-0.0742,-0.0732,-0.0676,-0.0642,-0.0608,-0.0566,-0.0498,-0.0428,-0.0362,-0.0349,-0.0324,-0.0272,-0.0259,-0.0246,-0.0228,-0.0219,-0.0169,-0.0158,-0.028,-0.0279,-0.0278,-0.0277,0,0,-0.0872,-0.0831,-0.0827,-0.0829,-0.0766,-0.0751,-0.0708,-0.0657,-0.0627,-0.0557,-0.0511,-0.0435,-0.0394,-0.0357,-0.0316,-0.0266,-0.0213,-0.0248,-0.0244,-0.0212,-0.0091,-0.0077,-0.0063,-0.0196,-0.0194,-0.0192,-0.0075,0,-0.0901,-0.0905,-0.0855,-0.0859,-0.0865,-0.0796,-0.0759,-0.07,-0.0638,-0.0573,-0.049,-0.043,-0.0397,-0.0371,-0.0312,-0.0237,-0.0184,-0.0246,-0.0095,-0.009,-0.0087,-0.0049,-0.0045,0.006,-0.0064,-0.0062,-0.006,0,-0.0917,-0.0924,-0.0947,-0.0922,-0.0911,-0.0893,-0.0828,-0.0787,-0.0674,-0.0621,-0.0534,-0.0461,-0.0367,-0.035,-0.0195,-0.0239,-0.017,-0.011,-0.0104,-0.0059,-0.0054,0.0035,0.0086,0.0227,-0.0042,-0.0044,-0.0045,0,-0.0992,-0.0979,-0.1011,-0.1004,-0.0961,-0.0947,-0.0911,-0.0811,-0.0769,-0.0652,-0.0607,-0.0473,-0.0413,-0.0293,-0.0163,-0.0179,0.0002,-0.0001,0.0083,0.0085,0.0136,0.0139,0.0336,0.0109,0.0108,0.0108,0.0108,0,-0.1044,-0.1063,-0.1055,-0.1076,-0.1092,-0.1023,-0.1002,-0.0936,-0.0835,-0.0781,-0.0645,-0.0576,-0.0398,-0.027,-0.0156,0.0008,0.0016,0.0099,0.0125,0.0115,0.0114,0.0278,0.033,0.0112,0.0111,0.0111,0.011,0,-0.1116,-0.1112,-0.1153,-0.1142,-0.1136,-0.1148,-0.1085,-0.1056,-0.0948,-0.0873,-0.0839,-0.0651,-0.0481,-0.0296,-0.0096,0.001,0.0247,0.0215,0.0186,0.0207,0.0403,0.045,0.067,0.073,0.0333,0.0334,0.0335,0,-0.1158,-0.1193,-0.1225,-0.125,-0.1249,-0.1249,-0.1237,-0.1136,-0.1088,-0.0919,-0.0883,-0.07,-0.0557,-0.0243,-0.0023,0.0206,0.0304,0.0339,0.0315,0.0436,0.0509,0.054,0.0576,0.036,0.0361,0.0362,0.0363,0,-0.1239,-0.125,-0.1287,-0.1355,-0.1371,-0.1367,-0.1333,-0.1309,-0.117,-0.1085,-0.0934,-0.081,-0.0503,-0.0228,0.0073,0.0207,0.0434,0.0364,0.0513,0.0575,0.0601,0.0663,0.0251,0.0371,0.037,0.037,0.0369,0.0369,-0.1295,-0.1345,-0.1398,-0.1446,-0.1466,-0.145,-0.1426,-0.1367,-0.1286,-0.1116,-0.1004,-0.0794,-0.0399,0.0029,0.0192,0.0537,0.051,0.0638,0.0694,0.072,0.0765,0.0362,0.0492,0.0492,0.0492,0.0492,0.0492,0,-0.1361,-0.1407,-0.1473,-0.152,-0.1536,-0.1519,-0.1455,-0.1392,-0.1294,-0.1159,-0.1006,-0.0585,-0.0185,0.0188,0.0676,0.087,0.09,0.097,0.103,0.1056,0.0732,0.0719,0.0875,0.0875,0.0875,0.0875,0.0875,0.0875,-0.1396,-0.1483,-0.1514,-0.1561,-0.1573,-0.1536,-0.1485,-0.1386,-0.1259,-0.102,-0.0793,-0.0631,-0.0075,0.0744,0.1204,0.1237,0.1384,0.1368,0.1459,0.125,0.1223,0.1198,0.1201,0.1456,0.1457,0.1752,0.1755,0.1757]}],[{"header":{"parameterUnit":"m.s-1","parameterCategory":2,"la1":30.2991,"la2":30.254,"lo1":-89.0895,"lo2":-89.0444,"dy":0.0017,"dx":0.0017,"nx":28,"ny":28,"refTime":"2025-01-04T03:00:00:Z","depth":"2","parameterNumber":2,"parameterNumberName":"U-component_of_CURRENTS"},"data":[0,0,0,0,0,0,0,0,0,0,0,0,0,0,0,0,0,0,0,0,0,0,0,0,0,0,0,0,0,0,0,0,0,0,0,0,0,0,0,0,0,0,0,0,0,0,0,0,0,0,0,0,0,0,0,0,0,0,-0.254,-0.2541,0,-0.2528,-0.2527,-0.2526,-0.2482,-0.2481,-0.2481,-0.2481,-0.2441,-0.244,-0.244,0,0,0,0,0,0,0,0,0,0,0,0,0,-0.2536,-0.2535,-0.254,-0.2541,-0.2541,-0.2528,-0.2527,-0.2526,-0.2482,-0.2481,-0.2481,-0.2481,-0.2442,-0.2441,-0.244,0,0,0,0,0,0,0,0,0,0,0,0,0,-0.2524,-0.2535,-0.254,-0.2524,-0.2523,-0.2529,-0.2527,-0.2526,-0.2482,-0.2481,-0.2481,-0.2481,-0.2442,-0.2441,-0.2439,-0.2437,0,0,-0.2435,-0.2435,0,0,0,0,0,0,0,0,-0.2524,-0.2523,-0.2526,-0.2525,-0.2525,-0.2514,-0.2512,-0.2498,-0.2482,-0.2488,-0.2481,-0.2481,-0.2469,-0.2466,-0.2451,-0.2435,-0.2433,-0.2435,-0.2434,-0.2434,-0.2433,0,0,0,0,0,0,0,-0.2525,-0.2523,-0.2526,-0.2527,-0.2526,-0.2523,-0.2519,-0.2508,-0.2473,-0.2487,-0.2486,-0.25,-0.2467,-0.2453,-0.245,-0.2433,-0.2435,-0.2434,-0.2433,-0.2433,-0.2485,-0.2487,0,0,0,0,0,0,-0.2545,-0.2524,-0.2527,-0.2527,-0.2534,-0.2524,-0.252,-0.251,-0.2473,-0.247,-0.25,-0.2498,-0.2455,-0.2452,-0.2449,-0.251,-0.2434,-0.2433,-0.2432,-0.2483,-0.2485,-0.2488,0,0,0,0,0,0,-0.2544,-0.2544,-0.2527,-0.2534,-0.2532,-0.2525,-0.2514,-0.251,-0.252,-0.2485,-0.2479,-0.2518,-0.2455,-0.2451,-0.2466,-0.2506,-0.2432,-0.2431,-0.248,-0.2484,-0.2487,-0.259,0,0,0,0,0,0,-0.2543,-0.2543,-0.2551,-0.2534,-0.2533,-0.2553,-0.2516,-0.2511,-0.2532,-0.2529,-0.2499,-0.2493,-0.2454,-0.2468,-0.2465,-0.2503,-0.243,-0.2477,-0.2482,-0.2485,-0.2584,-0.2597,-0.2607,0,0,0,0,0,-0.2543,-0.2548,-0.2551,-0.2553,-0.2541,-0.2556,-0.2555,-0.2542,-0.2534,-0.2547,-0.253,-0.2495,-0.2492,-0.2469,-0.2464,-0.2503,-0.2475,-0.248,-0.2485,-0.2579,-0.2594,-0.2607,0,0,0,0,0,0,-0.2538,-0.2545,-0.2547,-0.2551,-0.257,-0.2552,-0.2553,-0.2564,-0.2559,-0.2549,-0.2518,-0.2512,-0.2538,-0.2513,-0.2489,-0.2532,-0.248,-0.2485,-0.2553,-0.2567,-0.2579,-0.2602,-0.2429,0,0,0,0,0,-0.2548,-0.2559,-0.2568,-0.2577,-0.2576,-0.2574,-0.2583,-0.2583,-0.2578,-0.2575,-0.2559,-0.2546,-0.2551,-0.2554,-0.254,-0.2566,-0.2544,-0.2591,-0.2602,-0.2612,-0.263,-0.2633,-0.2646,-0.2504,-0.2504,-0.2504,0,0,-0.2558,-0.2558,-0.257,-0.258,-0.2571,-0.2603,-0.2574,-0.2588,-0.2631,-0.2572,-0.2601,-0.2581,-0.2567,-0.259,-0.2601,-0.2577,-0.2641,-0.2619,-0.2627,-0.264,-0.2639,-0.2653,-0.2665,-0.2507,-0.2506,-0.2506,0,0,-0.2569,-0.2566,-0.2577,-0.2596,-0.2612,-0.2627,-0.2647,-0.2647,-0.2654,-0.2693,-0.2662,-0.2681,-0.2675,-0.2679,-0.2683,-0.2758,-0.27,-0.2748,-0.2829,-0.2831,-0.2843,-0.2853,-0.284,-0.2848,-0.2758,-0.2758,-0.2758,0,-0.2589,-0.2594,-0.2588,-0.2603,-0.2639,-0.265,-0.2691,-0.2706,-0.2725,-0.2739,-0.2717,-0.2732,-0.2727,-0.2773,-0.2806,-0.2787,-0.2763,-0.2774,-0.2846,-0.2855,-0.2863,-0.2848,-0.2855,-0.2763,-0.2763,-0.2762,-0.2762,0,-0.2589,-0.2625,-0.2626,-0.2665,-0.2706,-0.2737,-0.2776,-0.2816,-0.2836,-0.2844,-0.2878,-0.2862,-0.2874,-0.2883,-0.2875,-0.2936,-0.2891,-0.2855,-0.2808,-0.2884,-0.2863,-0.2869,-0.2771,-0.2769,-0.2768,-0.2766,0,0,-0.2566,-0.2626,-0.2632,-0.2672,-0.2746,-0.2773,-0.2864,-0.2933,-0.2972,-0.2985,-0.3021,-0.306,-0.3027,-0.3032,-0.301,-0.3029,-0.3083,-0.298,-0.2977,-0.2964,-0.307,-0.292,-0.2911,-0.3046,-0.3047,-0.3049,-0.3031,0,-0.2579,-0.2655,-0.2676,-0.2771,-0.2823,-0.2879,-0.296,-0.3026,-0.306,-0.3087,-0.3087,-0.309,-0.3088,-0.3078,-0.3112,-0.3069,-0.3102,-0.309,-0.3002,-0.3,-0.2854,-0.2914,-0.2689,-0.2643,-0.3036,-0.3037,-0.3037,0,-0.2571,-0.2636,-0.2741,-0.2849,-0.2864,-0.2924,-0.3049,-0.3104,-0.3163,-0.3181,-0.3202,-0.3164,-0.3201,-0.317,-0.3182,-0.3164,-0.3153,-0.3124,-0.3122,-0.295,-0.286,-0.2631,-0.2637,-0.3046,-0.3045,-0.3045,-0.3044,0,-0.2571,-0.2675,-0.2775,-0.2811,-0.2932,-0.2983,-0.304,-0.3131,-0.3156,-0.321,-0.3212,-0.3238,-0.3216,-0.3223,-0.3186,-0.3181,-0.3167,-0.3142,-0.3005,-0.2993,-0.277,-0.2735,-0.3181,-0.3181,-0.3181,-0.3181,-0.3181,0,-0.2586,-0.2643,-0.2778,-0.2814,-0.2889,-0.2984,-0.3039,-0.31,-0.3171,-0.3158,-0.3224,-0.3191,-0.3227,-0.3204,-0.3197,-0.3102,-0.3179,-0.3032,-0.2984,-0.2798,-0.2767,-0.309,-0.308,-0.3181,-0.3181,-0.3181,-0.3181,0,-0.2551,-0.2648,-0.2727,-0.2859,-0.2881,-0.2925,-0.2989,-0.3014,-0.3117,-0.3106,-0.311,-0.3153,-0.3094,-0.3117,-0.3098,-0.3074,-0.3023,-0.2984,-0.2755,-0.268,-0.285,-0.2846,-0.2823,-0.2818,-0.2813,-0.2809,-0.2806,0,-0.2558,-0.2601,-0.271,-0.2717,-0.2753,-0.2823,-0.2843,-0.296,-0.2971,-0.3032,-0.299,-0.2978,-0.2899,-0.2842,-0.2791,-0.2748,-0.287,-0.2535,-0.2498,-0.2861,-0.2817,-0.282,-0.2821,-0.225,-0.2243,-0.2237,-0.2232,0,-0.2503,-0.2526,-0.2555,-0.2615,-0.263,-0.2651,-0.2685,-0.2691,-0.2792,-0.2791,-0.2734,-0.2684,-0.2626,-0.2445,-0.2427,-0.2372,-0.2521,-0.2404,-0.2841,-0.2366,-0.2316,-0.2275,-0.2296,-0.2178,-0.2183,-0.2187,-0.219,-0.2192,-0.2416,-0.2393,-0.2428,-0.2451,-0.2472,-0.2455,-0.2396,-0.2436,-0.2409,-0.2365,-0.2418,-0.2302,-0.2289,-0.2099,-0.2003,-0.196,-0.2134,-0.207,-0.2092,-0.2119,-0.2046,-0.1989,-0.1776,-0.1779,-0.1782,-0.1784,-0.1786,0,-0.2283,-0.2251,-0.2259,-0.2246,-0.2198,-0.2289,-0.2257,-0.2171,-0.2054,-0.2065,-0.1998,-0.1784,-0.1663,-0.1682,-0.1533,-0.1512,-0.1529,-0.1443,-0.1474,-0.1527,-0.1574,-0.1477,-0.1055,-0.1053,-0.1051,-0.1049,0,0,-0.219,-0.2118,-0.2107,-0.1981,-0.1973,-0.1859,-0.1805,-0.17,-0.167,-0.1536,-0.1489,-0.1584,-0.1632,-0.1351,-0.1274,-0.1147,-0.1328,-0.1081,-0.1662,-0.175,-0.1796,-0.1921,-0.1828,0,0,0,0,0]},{"header":{"parameterUnit":"m.s-1","parameterCategory":2,"la1":30.2991,"la2":30.254,"lo1":-89.0895,"lo2":-89.0444,"dy":0.0017,"dx":0.0017,"nx":28,"ny":28,"refTime":"2025-01-04T03:00:00:Z","depth":"2","parameterNumber":3,"parameterNumberName":"V-component_of_CURRENTS"},"data":[0,0,0,0,0,0,0,0,0,0,0,0,0,0,0,0,0,0,0,0,0,0,0,0,0,0,0,0,0,0,0,0,0,0,0,0,0,0,0,0,0,0,0,0,0,0,0,0,0,0,0,0,0,0,0,0,0,0,-0.027,-0.0269,0,-0.0122,-0.012,-0.0118,-0.0052,-0.0053,-0.0054,-0.0055,0.0004,0.0007,0.0009,0,0,0,0,0,0,0,0,0,0,0,0,0,-0.039,-0.0388,-0.027,-0.0269,-0.0268,-0.0123,-0.012,-0.0117,-0.0052,-0.0053,-0.0054,-0.0055,0.0004,0.0007,0.0009,0,0,0,0,0,0,0,0,0,0,0,0,0,-0.0293,-0.0387,-0.027,-0.0223,-0.0218,-0.0123,-0.012,-0.0117,-0.0052,-0.0053,-0.0055,-0.0056,0.0003,0.0006,0.001,0.0059,0,0,0.0021,0.0022,0,0,0,0,0,0,0,0,-0.0298,-0.0287,-0.0231,-0.0226,-0.0221,-0.0114,-0.0141,-0.0065,-0.0052,-0.0107,-0.0055,-0.0056,-0.0047,-0.0039,0.0003,0.0061,0.0064,0.0021,0.0023,0.0025,0.0026,0,0,0,0,0,0,0,-0.0305,-0.0293,-0.0204,-0.023,-0.0224,-0.0174,-0.0162,-0.0124,-0.0067,-0.0102,-0.0099,-0.0094,-0.0044,-0.0,0.0005,0.0065,0.0021,0.0024,0.0026,0.0028,0.0091,0.009,0,0,0,0,0,0,-0.0342,-0.03,-0.0209,-0.02,-0.0272,-0.0172,-0.0158,-0.0141,-0.0066,-0.0057,-0.0093,-0.0092,-0.0006,0.0,0.0007,-0.0004,0.0025,0.0028,0.003,0.0091,0.0091,0.009,0,0,0,0,0,0,-0.0345,-0.0335,-0.0215,-0.0253,-0.0236,-0.017,-0.015,-0.0137,-0.0125,-0.0059,-0.0051,-0.0101,-0.0007,0.0002,0.001,0.0001,0.003,0.0033,0.0092,0.0091,0.0091,0.002,0,0,0,0,0,0,-0.0349,-0.0336,-0.0344,-0.0256,-0.0235,-0.0191,-0.0149,-0.0134,-0.0122,-0.0119,-0.0062,-0.0055,-0.0007,0.0004,0.0013,0.0006,0.0036,0.0093,0.0092,0.0091,0.0023,0.0017,0.0012,0,0,0,0,0,-0.0353,-0.0361,-0.0345,-0.0335,-0.0245,-0.0193,-0.0178,-0.0129,-0.0122,-0.0122,-0.0086,-0.0059,0.0005,0.0007,0.0018,0.0011,0.0093,0.0092,0.0091,0.0026,0.0018,0.0012,0,0,0,0,0,0,-0.0409,-0.0353,-0.0334,-0.0322,-0.028,-0.0186,-0.0174,-0.0152,-0.0115,-0.0116,-0.0063,-0.0054,-0.0046,-0.0012,-0.0012,0.0026,0.0053,0.0054,-0.0,-0.0006,-0.0012,-0.0011,0.0039,0,0,0,0,0,-0.0428,-0.0427,-0.0359,-0.0355,-0.0329,-0.0259,-0.0237,-0.0206,-0.0159,-0.0144,-0.0102,-0.0062,-0.0032,-0.0022,0.002,0.0036,0.0079,0.0039,0.0033,0.0028,0.0036,0.0089,0.0089,0.0087,0.0087,0.0087,0,0,-0.0457,-0.0421,-0.0425,-0.037,-0.0318,-0.0293,-0.0247,-0.0217,-0.0203,-0.0145,-0.0116,-0.0081,-0.0033,-0.0007,-0.0001,0.0012,0.0048,0.0027,0.0022,0.0033,0.0088,0.0089,0.0089,0.0086,0.0086,0.0086,0,0,-0.0493,-0.0467,-0.047,-0.0433,-0.0378,-0.0336,-0.0345,-0.0264,-0.0234,-0.0211,-0.0161,-0.0136,-0.0091,-0.004,-0.0018,-0.0032,0.0018,-0.0032,-0.0057,-0.0007,-0.0006,-0.0005,0.0037,0.0043,-0.0036,-0.0036,-0.0036,0,-0.0537,-0.0516,-0.0466,-0.0442,-0.0428,-0.0369,-0.0365,-0.0314,-0.025,-0.0224,-0.0223,-0.0131,-0.0099,-0.0054,-0.006,-0.0043,-0.0012,-0.0039,-0.0014,-0.0012,-0.0009,0.0034,0.0041,-0.0039,-0.0039,-0.0038,-0.0038,0,-0.0544,-0.0544,-0.0536,-0.0498,-0.0477,-0.0465,-0.0398,-0.0374,-0.0348,-0.0293,-0.0247,-0.0184,-0.0133,-0.0121,-0.0099,-0.0062,-0.0046,-0.0028,0.0002,-0.0013,0.0033,0.0042,-0.0044,-0.0043,-0.0042,-0.0041,0,0,-0.0603,-0.0563,-0.0564,-0.0566,-0.051,-0.0496,-0.0469,-0.0422,-0.0401,-0.0336,-0.0303,-0.0239,-0.0194,-0.0165,-0.012,-0.0077,-0.0043,-0.0057,-0.0053,-0.0017,0.0059,0.0073,0.0085,-0.0026,-0.0025,-0.0024,0.0078,0,-0.0633,-0.0653,-0.0603,-0.0624,-0.063,-0.0566,-0.0545,-0.0493,-0.0442,-0.0387,-0.0302,-0.0253,-0.0212,-0.0196,-0.0145,-0.0061,-0.0021,-0.0073,0.0071,0.0075,0.0089,0.0095,0.0077,0.0167,0.0088,0.0089,0.009,0,-0.0649,-0.0666,-0.0711,-0.0703,-0.0692,-0.0688,-0.0655,-0.0621,-0.0518,-0.0471,-0.0393,-0.0316,-0.0229,-0.0207,-0.0058,-0.0096,-0.003,0.0034,0.0039,0.0088,0.0107,0.0173,0.0187,0.0106,0.0105,0.0103,0.0102,0,-0.0736,-0.0738,-0.0799,-0.0792,-0.0764,-0.076,-0.074,-0.0656,-0.062,-0.0518,-0.0484,-0.0355,-0.03,-0.0185,-0.0046,-0.0057,0.0113,0.0119,0.02,0.0201,0.0235,0.0238,0.0213,0.0213,0.0213,0.0212,0.0212,0,-0.0793,-0.0824,-0.0849,-0.0866,-0.091,-0.0851,-0.085,-0.0796,-0.0712,-0.0666,-0.0535,-0.0475,-0.0296,-0.017,-0.0052,0.011,0.0115,0.0206,0.0234,0.0208,0.0206,0.0195,0.0191,0.0216,0.0215,0.0215,0.0214,0,-0.0869,-0.0882,-0.0942,-0.0953,-0.0952,-0.0986,-0.0934,-0.0917,-0.0828,-0.0768,-0.0739,-0.0563,-0.0396,-0.0208,-0.0012,0.0097,0.0253,0.0301,0.0255,0.0277,0.0306,0.0298,0.0406,0.0408,0.0409,0.041,0.0411,0,-0.0925,-0.0964,-0.103,-0.1061,-0.1063,-0.1085,-0.108,-0.0997,-0.0959,-0.0817,-0.0788,-0.0617,-0.0477,-0.0167,0.0051,0.0279,0.0278,0.0388,0.0368,0.0312,0.0329,0.0318,0.0308,0.0383,0.0384,0.0384,0.0385,0,-0.1002,-0.1027,-0.1076,-0.1168,-0.1192,-0.1202,-0.118,-0.1164,-0.1048,-0.0976,-0.0841,-0.0722,-0.0427,-0.0162,0.013,0.026,0.0354,0.0403,0.0379,0.0328,0.0296,0.031,0.0301,0.0389,0.0388,0.0388,0.0388,0.0388,-0.1064,-0.1126,-0.1195,-0.1263,-0.1293,-0.129,-0.1269,-0.122,-0.1155,-0.1,-0.0896,-0.068,-0.0432,-0.0009,0.0197,0.0396,0.0387,0.0454,0.045,0.0447,0.0416,0.0388,0.0492,0.0492,0.0492,0.0492,0.0493,0,-0.113,-0.1182,-0.1267,-0.1329,-0.1352,-0.1351,-0.1303,-0.1239,-0.115,-0.1018,-0.0868,-0.0568,-0.0274,-0.0017,0.0296,0.0474,0.0462,0.0506,0.046,0.0455,0.0451,0.0419,0.0497,0.0497,0.0498,0.0498,0,0,-0.116,-0.1257,-0.1297,-0.1358,-0.1381,-0.1364,-0.1324,-0.1221,-0.1097,-0.0938,-0.0777,-0.0572,-0.0258,-0.0034,0.0191,0.0355,0.0355,0.0368,0.0349,0.0263,0.0257,0.0409,0.0352,0,0,0,0,0]}],[{"header":{"parameterUnit":"m.s-1","parameterCategory":2,"la1":30.2991,"la2":30.254,"lo1":-89.0895,"lo2":-89.0444,"dy":0.0017,"dx":0.0017,"nx":28,"ny":28,"refTime":"2025-01-04T03:00:00:Z","depth":"4","parameterNumber":2,"parameterNumberName":"U-component_of_CURRENTS"},"data":[0,0,0,0,0,0,0,0,0,0,0,0,0,0,0,0,0,0,0,0,0,0,0,0,0,0,0,0,0,0,0,0,0,0,0,0,0,0,0,0,0,0,0,0,0,0,0,0,0,0,0,0,0,0,0,0,0,0,-0.064,-0.0641,0,-0.0717,-0.0717,-0.0718,-0.0745,-0.0745,-0.0745,-0.0745,-0.0838,-0.0841,-0.0843,0,0,0,0,0,0,0,0,0,0,0,0,0,-0.0564,-0.0564,-0.064,-0.0641,-0.0642,-0.0717,-0.0717,-0.0718,-0.0745,-0.0745,-0.0745,-0.0745,-0.0838,-0.0841,-0.0843,0,0,0,0,0,0,0,0,0,0,0,0,0,-0.061,-0.0564,-0.0639,-0.0667,-0.0671,-0.0716,-0.0717,-0.0718,-0.0745,-0.0745,-0.0745,-0.0745,-0.0837,-0.084,-0.0844,-0.0865,0,0,-0.0855,-0.0857,0,0,0,0,0,0,0,0,-0.0608,-0.0613,-0.0662,-0.0666,-0.067,-0.0724,-0.0725,-0.0769,-0.0745,-0.0713,-0.0745,-0.0745,-0.0804,-0.0811,-0.0819,-0.0869,-0.0873,-0.0855,-0.0858,-0.0859,-0.086,0,0,0,0,0,0,0,-0.0604,-0.061,-0.0666,-0.0663,-0.0668,-0.0693,-0.0698,-0.0733,-0.0755,-0.0716,-0.0719,-0.0733,-0.0806,-0.0816,-0.0822,-0.0875,-0.0855,-0.0859,-0.0861,-0.0862,-0.101,-0.1011,0,0,0,0,0,0,-0.06,-0.0607,-0.0664,-0.0669,-0.0642,-0.0694,-0.07,-0.0704,-0.0754,-0.0763,-0.0733,-0.0734,-0.0809,-0.0818,-0.0825,-0.0949,-0.0859,-0.0863,-0.0865,-0.1008,-0.101,-0.1012,0,0,0,0,0,0,-0.0598,-0.0604,-0.0661,-0.0643,-0.0653,-0.0695,-0.0699,-0.0705,-0.0736,-0.0768,-0.0776,-0.0759,-0.081,-0.082,-0.0873,-0.0949,-0.0864,-0.0868,-0.1006,-0.1009,-0.1011,-0.1135,0,0,0,0,0,0,-0.0595,-0.0602,-0.0608,-0.0642,-0.0654,-0.0697,-0.0699,-0.0707,-0.0745,-0.0747,-0.0793,-0.08,-0.0811,-0.0867,-0.0877,-0.0953,-0.087,-0.1004,-0.1007,-0.101,-0.1129,-0.1142,-0.1153,0,0,0,0,0,-0.0592,-0.0597,-0.0607,-0.0615,-0.0658,-0.0698,-0.0706,-0.0734,-0.0746,-0.0761,-0.0794,-0.08,-0.0895,-0.0872,-0.0882,-0.0961,-0.1002,-0.1006,-0.101,-0.1124,-0.1139,-0.1152,0,0,0,0,0,0,-0.0567,-0.0602,-0.0614,-0.0629,-0.0666,-0.0704,-0.0718,-0.0747,-0.0785,-0.0794,-0.0819,-0.0829,-0.0908,-0.0904,-0.0878,-0.1008,-0.0951,-0.0957,-0.1034,-0.1049,-0.106,-0.1053,-0.0874,0,0,0,0,0,-0.0564,-0.058,-0.0618,-0.0635,-0.0646,-0.0687,-0.071,-0.0739,-0.0777,-0.0794,-0.0828,-0.0869,-0.0929,-0.0962,-0.0994,-0.1064,-0.1049,-0.1119,-0.1131,-0.1141,-0.114,-0.1151,-0.1164,-0.1025,-0.1025,-0.1025,0,0,-0.056,-0.0584,-0.0592,-0.0632,-0.0654,-0.0701,-0.07,-0.0742,-0.0791,-0.0799,-0.0866,-0.091,-0.0952,-0.1035,-0.1071,-0.1046,-0.1182,-0.1146,-0.1156,-0.1148,-0.1156,-0.117,-0.1182,-0.1027,-0.1027,-0.1027,0,0,-0.0565,-0.0576,-0.0591,-0.063,-0.0681,-0.0715,-0.0734,-0.0786,-0.0808,-0.0879,-0.0912,-0.0963,-0.1059,-0.1089,-0.1124,-0.1207,-0.124,-0.1271,-0.1341,-0.1353,-0.1364,-0.1374,-0.1414,-0.1426,-0.1284,-0.1284,-0.1284,0,-0.056,-0.0591,-0.0605,-0.0645,-0.0707,-0.0728,-0.0796,-0.081,-0.0881,-0.0928,-0.0908,-0.1069,-0.1064,-0.1199,-0.1234,-0.1231,-0.1285,-0.1292,-0.1369,-0.1378,-0.1386,-0.1424,-0.1436,-0.1291,-0.129,-0.1289,-0.1289,0,-0.0582,-0.0623,-0.0636,-0.0703,-0.0775,-0.0823,-0.0879,-0.0901,-0.0943,-0.1009,-0.1129,-0.1135,-0.1231,-0.1261,-0.1279,-0.1388,-0.1426,-0.138,-0.1335,-0.1408,-0.1443,-0.1453,-0.13,-0.1298,-0.1296,-0.1294,0,0,-0.0534,-0.0631,-0.0638,-0.0702,-0.0822,-0.0877,-0.0942,-0.1038,-0.1088,-0.1157,-0.1273,-0.1338,-0.1379,-0.1415,-0.1455,-0.1474,-0.1552,-0.1489,-0.1487,-0.1533,-0.1662,-0.1557,-0.1558,-0.1575,-0.1577,-0.1578,-0.168,0,-0.055,-0.0599,-0.0708,-0.0832,-0.0866,-0.097,-0.1049,-0.115,-0.1203,-0.1295,-0.1349,-0.1469,-0.1435,-0.1512,-0.1527,-0.157,-0.1584,-0.1532,-0.1579,-0.1579,-0.148,-0.1564,-0.1583,-0.1687,-0.1689,-0.169,-0.1692,0,-0.0549,-0.0579,-0.0673,-0.0874,-0.0917,-0.1037,-0.118,-0.1272,-0.1395,-0.1444,-0.1565,-0.1629,-0.1732,-0.1642,-0.1721,-0.1734,-0.1698,-0.1689,-0.1692,-0.1549,-0.1491,-0.1587,-0.1709,-0.1708,-0.1706,-0.1705,-0.1704,0,-0.0461,-0.0598,-0.0673,-0.0733,-0.0928,-0.1039,-0.1183,-0.1325,-0.1417,-0.157,-0.1638,-0.1784,-0.1839,-0.186,-0.1819,-0.182,-0.1874,-0.1836,-0.1701,-0.1696,-0.1704,-0.1691,-0.1821,-0.1821,-0.1821,-0.182,-0.182,0,-0.0448,-0.0515,-0.0627,-0.068,-0.0861,-0.1021,-0.1229,-0.1347,-0.1504,-0.1629,-0.174,-0.1806,-0.1895,-0.1932,-0.1901,-0.1847,-0.1917,-0.1731,-0.1711,-0.1759,-0.1752,-0.1713,-0.17,-0.1824,-0.1823,-0.1823,-0.1822,0,-0.0405,-0.0429,-0.0579,-0.0768,-0.0842,-0.101,-0.1324,-0.1386,-0.1538,-0.1681,-0.1749,-0.1876,-0.1935,-0.197,-0.199,-0.1904,-0.1878,-0.1806,-0.1898,-0.188,-0.1691,-0.1683,-0.1734,-0.1731,-0.1729,-0.1727,-0.1725,0,-0.039,-0.0403,-0.0665,-0.0752,-0.0885,-0.1092,-0.1191,-0.141,-0.1451,-0.1678,-0.1697,-0.1844,-0.1894,-0.1881,-0.1912,-0.1896,-0.1815,-0.1808,-0.1715,-0.1705,-0.1682,-0.1677,-0.1672,-0.1721,-0.172,-0.172,-0.1719,0,-0.0402,-0.0504,-0.065,-0.0763,-0.0909,-0.1075,-0.1219,-0.1265,-0.1436,-0.1569,-0.1638,-0.1714,-0.1766,-0.1819,-0.1802,-0.1762,-0.1849,-0.1782,-0.1786,-0.1697,-0.1689,-0.1667,-0.1666,-0.171,-0.1712,-0.1712,-0.1713,0,-0.0446,-0.0581,-0.0688,-0.082,-0.0936,-0.0979,-0.1127,-0.1153,-0.1258,-0.1447,-0.1472,-0.1618,-0.1748,-0.1744,-0.1731,-0.1711,-0.1672,-0.1597,-0.1609,-0.1619,-0.1527,-0.1496,-0.1457,0,0,0,0,0,-0.0467,-0.0554,-0.0676,-0.0807,-0.0878,-0.0919,-0.1044,-0.1124,-0.1264,-0.127,-0.1372,-0.1421,-0.1498,-0.1577,-0.1528,-0.1651,-0.1653,-0.1584,-0.1566,-0.1663,-0.1673,-0.1569,0,0,0,0,0,0,-0.0482,-0.0596,-0.0663,-0.066,-0.0701,-0.0747,-0.0837,-0.095,-0.095,-0.1128,-0.1174,-0.1309,-0.1388,-0.1494,-0.1489,-0.1506,-0.1461,-0.1672,-0.1667,-0.1657,-0.1666,-0.1674,-0.1571,0,0,0,0,0]},{"header":{"parameterUnit":"m.s-1","parameterCategory":2,"la1":30.2991,"la2":30.254,"lo1":-89.0895,"lo2":-89.0444,"dy":0.0017,"dx":0.0017,"nx":28,"ny":28,"refTime":"2025-01-04T03:00:00:Z","depth":"4","parameterNumber":3,"parameterNumberName":"V-component_of_CURRENTS"},"data":[0,0,0,0,0,0,0,0,0,0,0,0,0,0,0,0,0,0,0,0,0,0,0,0,0,0,0,0,0,0,0,0,0,0,0,0,0,0,0,0,0,0,0,0,0,0,0,0,0,0,0,0,0,0,0,0,0,0,-0.0012,-0.0012,0,0.0014,0.0014,0.0014,0.0045,0.0046,0.0046,0.0047,0.0122,0.0124,0.0125,0,0,0,0,0,0,0,0,0,0,0,0,0,-0.0002,-0.0003,-0.0012,-0.0012,-0.0011,0.0014,0.0014,0.0014,0.0045,0.0046,0.0046,0.0047,0.0122,0.0123,0.0125,0,0,0,0,0,0,0,0,0,0,0,0,0,0.0004,-0.0003,-0.0012,0.0009,0.0011,0.0014,0.0014,0.0015,0.0045,0.0046,0.0047,0.0048,0.0121,0.0123,0.0125,0.0119,0,0,0.0132,0.0133,0,0,0,0,0,0,0,0,0.0003,0.0003,0.0005,0.0007,0.001,0.0029,0.0045,0.0053,0.0045,0.003,0.0047,0.0048,0.0096,0.01,0.01,0.0123,0.0126,0.0132,0.0133,0.0134,0.0135,0,0,0,0,0,0,0,0.0003,0.0002,-0.0004,0.0005,0.0008,0.0028,0.003,0.0047,0.0057,0.0031,0.0034,0.004,0.0098,0.0098,0.0102,0.0127,0.0132,0.0134,0.0135,0.0136,0.016,0.0159,0,0,0,0,0,0,0.0,0.0001,-0.0004,-0.0003,0.0011,0.0027,0.0029,0.002,0.0056,0.0062,0.0039,0.0041,0.0093,0.0099,0.0105,0.0123,0.0134,0.0136,0.0137,0.0161,0.016,0.0159,0,0,0,0,0,0,-0.0,-0.0001,-0.0005,0.0003,0.0004,0.0026,0.0016,0.002,0.003,0.0061,0.0068,0.0046,0.0094,0.0102,0.0122,0.0126,0.0137,0.0139,0.0161,0.016,0.016,0.0146,0,0,0,0,0,0,-0.0,-0.0002,-0.0009,0.0002,0.0003,-0.0009,0.0016,0.002,0.0033,0.0036,0.007,0.0077,0.0096,0.0118,0.0124,0.0129,0.0141,0.0162,0.0161,0.016,0.0147,0.0145,0.0142,0,0,0,0,0,-0.0,-0.0018,-0.001,-0.001,-0.0008,-0.001,-0.0008,0.0011,0.0032,0.0026,0.0054,0.0077,0.0115,0.0119,0.0126,0.0132,0.0163,0.0161,0.016,0.0148,0.0145,0.0142,0,0,0,0,0,0,-0.0019,-0.0016,-0.0007,-0.0023,-0.0017,-0.0004,-0.0009,0.0012,0.0028,0.0036,0.0072,0.008,0.0095,0.0111,0.0115,0.0132,0.0141,0.0141,0.013,0.0127,0.0125,0.0116,0.0142,0,0,0,0,0,-0.0027,-0.0038,-0.0029,-0.0041,-0.0042,-0.0023,-0.0019,-0.0005,0.0012,0.002,0.0046,0.0072,0.0091,0.0108,0.0119,0.0134,0.0149,0.0139,0.0137,0.0135,0.013,0.014,0.0138,0.0155,0.0155,0.0155,0,0,-0.0036,-0.0035,-0.0041,-0.0045,-0.0041,-0.0057,-0.0019,-0.0019,-0.0028,0.0026,0.0025,0.0062,0.009,0.0102,0.0111,0.0121,0.0142,0.0133,0.0132,0.0128,0.0138,0.0137,0.0135,0.0154,0.0154,0.0154,0,0,-0.0063,-0.0064,-0.0083,-0.0087,-0.0081,-0.0076,-0.0075,-0.006,-0.0051,-0.0045,-0.0006,0.0018,0.0054,0.0068,0.0083,0.0068,0.0123,0.0097,0.009,0.0099,0.0098,0.0098,0.0135,0.0138,0.0104,0.0104,0.0104,0,-0.0071,-0.0103,-0.0088,-0.011,-0.012,-0.0088,-0.0114,-0.0108,-0.0085,-0.0075,-0.0053,0.0005,0.0021,0.0049,0.0055,0.006,0.0106,0.0103,0.0097,0.0097,0.0096,0.0135,0.0138,0.0103,0.0103,0.0103,0.0103,0,-0.0112,-0.0143,-0.0158,-0.018,-0.0185,-0.0206,-0.0195,-0.0194,-0.017,-0.0147,-0.0112,-0.0074,-0.0039,-0.0017,0.0022,0.0045,0.0093,0.0089,0.0107,0.0094,0.0135,0.0139,0.0102,0.0102,0.0102,0.0102,0,0,-0.0114,-0.0178,-0.0182,-0.0221,-0.0228,-0.0244,-0.0258,-0.0261,-0.0267,-0.0217,-0.0207,-0.0156,-0.0101,-0.0081,-0.0019,0.0015,0.005,0.0075,0.0075,0.0117,0.0125,0.0131,0.0136,0.0078,0.0077,0.0077,0.0163,0,-0.0152,-0.0227,-0.0237,-0.031,-0.0351,-0.0341,-0.0356,-0.0345,-0.0324,-0.0307,-0.0235,-0.0206,-0.0134,-0.0098,-0.0054,0.0027,0.0059,0.003,0.0126,0.0129,0.014,0.0138,0.0077,0.0166,0.0167,0.0167,0.0168,0,-0.0178,-0.0235,-0.0317,-0.0392,-0.0406,-0.044,-0.0464,-0.0473,-0.0431,-0.04,-0.0336,-0.0272,-0.0194,-0.0153,-0.0023,-0.002,0.0045,0.0107,0.0111,0.012,0.014,0.0176,0.0174,0.0174,0.0173,0.0173,0.0173,0,-0.0189,-0.0286,-0.0363,-0.039,-0.0461,-0.0494,-0.0515,-0.0497,-0.0505,-0.0454,-0.0432,-0.0329,-0.028,-0.0172,-0.0033,-0.0016,0.0112,0.0119,0.0184,0.0186,0.0163,0.0162,0.017,0.017,0.017,0.0169,0.0169,0,-0.0222,-0.0284,-0.0388,-0.0437,-0.0529,-0.0537,-0.0596,-0.0598,-0.0574,-0.0563,-0.0475,-0.043,-0.0277,-0.0175,-0.0049,0.0094,0.0083,0.0184,0.0201,0.0158,0.0156,0.0167,0.0166,0.0173,0.0172,0.0171,0.0171,0,-0.0222,-0.0284,-0.0399,-0.0509,-0.0546,-0.0609,-0.0672,-0.069,-0.0658,-0.0641,-0.0619,-0.0506,-0.036,-0.0208,-0.0043,0.005,0.0183,0.0222,0.0187,0.0201,0.0262,0.0258,0.0303,0.0304,0.0305,0.0305,0.0306,0,-0.0231,-0.0284,-0.0462,-0.0537,-0.0603,-0.0687,-0.0722,-0.0729,-0.0726,-0.0671,-0.0643,-0.0531,-0.043,-0.018,-0.0032,0.0183,0.0205,0.0268,0.0252,0.0259,0.0272,0.0268,0.0264,0.0307,0.0307,0.0307,0.0307,0,-0.0252,-0.032,-0.0439,-0.0579,-0.0669,-0.0754,-0.0797,-0.0807,-0.0769,-0.0758,-0.0647,-0.052,-0.0365,-0.0173,-0.0017,0.0138,0.023,0.0276,0.0275,0.026,0.0264,0.0275,0.027,0.031,0.0309,0.0309,0.0309,0,-0.0269,-0.0372,-0.0505,-0.0625,-0.0728,-0.0773,-0.0814,-0.0788,-0.0782,-0.0705,-0.0671,-0.0504,-0.0413,-0.0197,-0.0041,0.0102,0.0135,0.0178,0.0183,0.0182,0.0119,0.0104,0.0115,0,0,0,0,0,-0.0269,-0.0376,-0.0516,-0.0656,-0.0737,-0.0776,-0.0825,-0.0834,-0.0807,-0.073,-0.0697,-0.0542,-0.0314,-0.0217,-0.0071,-0.0039,0.015,0.0135,0.0199,0.0322,0.032,0.0266,0,0,0,0,0,0,-0.0281,-0.0417,-0.0519,-0.0608,-0.0683,-0.075,-0.0784,-0.078,-0.0724,-0.0691,-0.0567,-0.0505,-0.0284,-0.0388,-0.0064,-0.0023,0.0037,0.024,0.0243,0.0324,0.0321,0.0319,0.0263,0,0,0,0,0]}]]